Regional Weather Roundup
Issued by NWS

Home | Current Version | Previous Version | Text Only | Print | Product List | Glossary On
Versions: 1 2 3 4 5 6 7 8 9 10 11 12 13 14 15 16 17 18 19 20 21 22 23 24 25 26 27 28 29 30 31 32 33 34 35 36 37 38 39 40 41 42 43 44 45 46 47 48 49 50
000
ASUS43 KMKX 291200
RWRWI

WISCONSIN REGIONAL WEATHER ROUNDUP
NATIONAL WEATHER SERVICE MILWAUKEE/SULLIVAN WI
700 AM CDT MON AUG 29 2016

NOTE: "FAIR" INDICATES FEW OR NO CLOUDS BELOW 12,000 FEET WITH NO
SIGNIFICANT WEATHER AND/OR OBSTRUCTIONS TO VISIBILITY.

WIZ001-002-006>008-014>016-023>028-291300-
NORTHWEST WISCONSIN

CITY           SKY/WX    TMP DP  RH WIND       PRES   REMARKS
SUPERIOR ARPT  LGT RAIN  62  62 100 S3        30.17F
ASHLAND        LGT RAIN  64  63  96 S7        30.21F
6HR MIN TEMP:  59; 6HR MAX TEMP:  68; 6HR PCP:  0.13;

HAYWARD        CLOUDY    64  62  93 E3        30.24S
6HR MIN TEMP:  61; 6HR MAX TEMP:  68; 6HR PCP:  0.14;

SIREN          CLOUDY    67  64  89 NE5       30.22R
CUMBERLAND     CLOUDY    64  64 100 N6        30.24R FOG
RICE LAKE      CLOUDY    66  64  96 CALM      30.23R FOG
CHETEK         NOT AVBL
LADYSMITH      MOCLDY    66  64  95 SE3       30.24R
EAU CLAIRE     NOT AVBL
MENOMONIE      FOG       66  65  99 CALM      30.20R VSB 1/4
6HR MIN TEMP:  64; 6HR MAX TEMP:  66;

NEW RICHMOND   CLOUDY    66  66 100 CALM      30.19R FOG
OSCEOLA        CLOUDY    66  66 100 N3        30.21R FOG
$$

WIZ003>005-009-010-017-018-291300-
NORTH CENTRAL WISCONSIN

CITY           SKY/WX    TMP DP  RH WIND       PRES   REMARKS
MANITOWISH WTR NOT AVBL
ARBOR VITAE    CLOUDY    65  64  94 S6        30.24R
WOODRUFF       CLOUDY    65  64  94 S6        30.24R
RHINELANDER    MOCLDY    64  64 100 CALM      30.26R FOG
6HR MIN TEMP:  59; 6HR MAX TEMP:  64;

EAGLE RIVER    CLOUDY    63  63 100 CALM      30.24S FOG
LAND O LAKES   CLOUDY    62  62 100 CALM      30.25R FOG
PHILLIPS       CLOUDY    64  64  98 S7        30.23S
6HR MIN TEMP:  62; 6HR MAX TEMP:  65;

TOMAHAWK       FOG       61  60  97 CALM      30.25S VSB 1
MEDFORD        CLOUDY    65  65 100 S3        30.24R FOG
MERRILL        CLOUDY    64  64 100 CALM      30.25S FOG
6HR MIN TEMP:  56; 6HR MAX TEMP:  64;

$$

WIZ029-030-035-036-043>047-291300-
CENTRAL WISCONSIN

CITY           SKY/WX    TMP DP  RH WIND       PRES   REMARKS
WAUSAU         CLOUDY    66  65  96 SE3       30.23S FOG
6HR MIN TEMP:  62; 6HR MAX TEMP:  66;

MOSINEE        CLOUDY    64  64 100 SE5       30.25S FOG
MARSHFIELD     FOG       67  65  93 S7        30.24R VSB<1/4
6HR MIN TEMP:  63; 6HR MAX TEMP:  67;

STEVENS POINT  CLOUDY    65  65 100 CALM      30.25R FOG
WAUPACA        MOCLDY    66  65  98 CALM      30.25R FOG
WAUTOMA        NOT AVBL
WISC RAPIDS    CLOUDY    68  68 100 S7        30.25R FOG
6HR MIN TEMP:  63; 6HR MAX TEMP:  68;

CAMP DOUGLAS   NOT AVBL
$$

WIZ011>013-019>022-031-037>040-048>050-291300-
NORTHEAST WISCONSIN

CITY           SKY/WX    TMP DP  RH WIND       PRES   REMARKS
ANTIGO         CLOUDY    64  64 100 CALM      30.27S FOG
SHAWANO        CLOUDY    66  63  91 CALM      30.26R
OCONTO         NOT AVBL
STURGEON BAY   CLOUDY    62  62 100 CALM      30.28R FOG
6HR MIN TEMP:  60; 6HR MAX TEMP:  63;

GREEN BAY      CLOUDY    64  64 100 CALM      30.25R
6HR MIN TEMP:  61; 6HR MAX TEMP:  64;

MANITOWOC      FOG       59  57  94 CALM      30.26S VSB 1/4
APPLETON       MOCLDY    66  64  94 CALM      30.24S
CLINTONVILLE   CLOUDY    64  63  94 CALM      30.25R
OSHKOSH        CLEAR     64  62  93 E3        30.24S
6HR MIN TEMP:  62; 6HR MAX TEMP:  67;

$$

WIZ032>034-041-042-053>061-291300-
SOUTHWEST WISCONSIN

CITY           SKY/WX    TMP DP  RH WIND       PRES   REMARKS
LA CROSSE      CLEAR     67  66  97 SE5       30.21R
6HR MIN TEMP:  66; 6HR MAX TEMP:  70;

SPARTA         CLOUDY    58  58 100 CALM      30.23S FOG
VIROQUA        CLEAR     66  66 100 CALM      30.25R
6HR MIN TEMP:  65; 6HR MAX TEMP:  69;

BOSCOBEL       FOG       67  66  97 CALM      30.23R VSB<1/4
6HR MIN TEMP:  67; 6HR MAX TEMP:  69;

PRAIRIE DU CHI CLEAR     66  65  94 CALM      30.21S
PLATTEVILLE    PTCLDY    67  67 100 E6        30.23S
$$

WIZ056-057-062-063-064-067-068-291300-
SOUTH CENTRAL WISCONSIN

CITY           SKY/WX    TMP DP  RH WIND       PRES   REMARKS
REEDSBURG      NOT AVBL
BARABOO/DELLS  FOG       68  67  96 S3        30.24S VSB 3/4
LONE ROCK      NOT AVBL
MINERAL POINT  PTCLDY    68  68 100 E5        30.24S FOG
MADISON        PTCLDY    66  65  96 CALM      30.24S FOG
6HR MIN TEMP:  64; 6HR MAX TEMP:  71;

MIDDLETON        N/A     66  66 100 CALM      30.25S
WATERTOWN      MOCLDY    64  64 100 CALM      30.25S FOG
MONROE         FOG       66  64  94 E5        30.25R VSB<1/4
JANESVILLE     PTCLDY    66  66 100 CALM      30.24R
$$

WIZ051-052-058>065-066-070>072-291300-
SOUTHEAST WISCONSIN

CITY           SKY/WX    TMP DP  RH WIND       PRES   REMARKS
MILWAUKEE      FOG       68  66  93 N3        30.25S VSB 1/4
6HR MIN TEMP:  67; 6HR MAX TEMP:  68;

WAUKESHA       FOG       61  61 100 CALM      30.27R VSB 1
MILWAUKEE/TIMM PTCLDY    61  59  94 CALM      30.26S FOG
RACINE         FOG       66  65  96 N3        30.26S VSB 1/4
6HR MIN TEMP:  64; 6HR MAX TEMP:  67;

BURLINGTON     FOG       62  62  99 CALM      30.25S VSB<1/4
KENOSHA        CLEAR     66  65  96 CALM      30.24F FOG
6HR MIN TEMP:  63; 6HR MAX TEMP:  67;

FOND DU LAC    CLEAR     62  61  96 S3        30.25S
6HR MIN TEMP:  61; 6HR MAX TEMP:  67;

SHEBOYGAN      FOG       60  59  96 CALM      30.26S VSB<1/4
6HR MIN TEMP:  57; 6HR MAX TEMP:  61;

WEST BEND      CLEAR     59  59 100 CALM      30.25S
JUNEAU         CLEAR     63  62  97 CALM      30.27R FOG
$$

LSZ147-162-291300-
LAKE SUPERIOR

STATION/POSITION TIME  TEMP    WIND        PRES    WAVE
                       AIR SEA DIR/SP/G            HT/PER
                 (UTC) (F)     (DEG/KT/KT) (MB)    (FT/S)
W MID LAKE BUOY  1050   68 68  150/ 10/ 12 1019.7F   2/ 4
DEVILS ISLAND    1100   65     270/ 16/ 19 1022.1R
PORT WING        1100   64     140/ 10     1022.4F
SAXON HARBOR     1100   71     200/  8/ 15 1021.3
$$

LMZ867-665-643>646-291300-
LAKE MICHIGAN

STATION/POSITION TIME  TEMP    WIND        PRES    WAVE
                       AIR SEA DIR/SP/G            HT/PER
                 (UTC) (F)     (DEG/KT/KT) (MB)    (FT/S)
CHAMBERS ISLAND  1140   62        CALM     1024.7R
S GREEN BAY BUOY 1000   68 71  140/  2/  4 1023.8
N MID LAKE BUOY  1050   69 71  150/ 10/ 12 1024.0F   1
NORTHPORT PIER   1100   66     150/  4/  7 1024.4S
KEWAUNEE LAKESHO 1100   61     300/  2/  3 1023.8S
SHEBOYGAN LAKESH 1100   62     360/  3/  3 1024.1R
PORT WASHINGTON  1140   65     300/  3/  3 1024.7S
ATWATER BUOY     1100   64     340/  6/  8   N/A
MILWAUKEE LAKESH 1110   66     320/  4/  5   N/A
S MID LAKE BUOY  1050   73 75   40/  6/  8 1023.0F   0
KENOSHA   LAKESH 1100   69     360/  6/  7 1023.4S
$$

TC  - TEMPERATURE IN CELSIUS
VSB - VISIBILITY IN STATUTE MILES
WCI - WIND CHILL INDEX
HX  - HEAT INDEX





USA.gov is the U.S. government's official web portal to all federal, state and local government web resources and services.